Terminal Aerodrome Forecast
Issued by NWS St Louis, MO

Home | Current Version | Previous Version | Graphics & Text | Print | Product List | Glossary On
Versions: 1 2 3 4 5 6 7 8 9 10 11 12 13 14 15 16 17 18 19 20 21 22 23 24 25 26
496
FTUS43 KLSX 211739 AAD
TAFSTL
TAF AMD
KSTL 211739Z 2118/2224 21009KT P6SM FEW250
     FM212300 17005KT P6SM BKN250
     FM220400 VRB03KT P6SM VCSH BKN070
     FM220800 VRB03KT 3SM BR VCSH OVC060
     FM221100 03005KT 2SM -SHRA BR OVC007
     FM221800 34014G23KT 3SM BR OVC020=

USA.gov is the U.S. government's official web portal to all federal, state and local government web resources and services.